CW8593 Weather Reports


Display with metric or nautical units.
time (UTC)temp
F
wind
direction
speed
MPH
gust
MPH
rain 1hr
in
rain 24hr
in
rain mn
in
humidity
%
barometer
mb
20141126110335 60 334 2.0 6.0 0.07 0.73 0.62 93 1010.7
20141126105333 60 15 2.0 5.0 0.06 0.72 0.61 93 1010.8
20141126102332 60 313 3.0 6.0 0.35 0.67 0.56 93 1011.4
20141126100332 60 294 1.0 3.0 0.46 0.66 0.55 93 1011.6
20141126093334 60 294 3.0 5.0 0.37 0.48 0.37 92 1011.3
20141126091336 61 290 6.0 7.0 0.16 0.27 0.16 92 1011.3
20141126085332 61 179 0.0 3.0 0.04 0.15 0.04 91 1011.3
20141126084332 61 180 0.0 0.0 0.01 0.12 0.01 92 1011.4
20141126083332 61 180 0.0 3.0 0.00 0.11 0.00 92 1011.3
20141126081333 61 180 1.0 3.0 0.00 0.11 0.00 92 1011.4
20141126080331 61 180 1.0 3.0 0.00 0.11 0.00 92 1011.4
20141126074332 60 179 0.0 3.0 0.00 0.11 0.00 92 1011.4
20141126073332 60 180 2.0 5.0 0.00 0.11 0.00 92 1011.4
20141126072333 60 179 0.0 3.0 0.00 0.11 0.00 92 1011.3
20141126070333 60 179 2.0 3.0 0.00 0.11 0.00 92 1011.3
20141126065332 60 180 1.0 3.0 0.00 0.11 0.00 93 1011.3
20141126062333 60 180 0.0 3.0 0.00 0.11 0.00 93 1011.5
20141126061332 60 180 0.0 3.0 0.00 0.11 0.00 93 1011.6
20141126055334 60 180 1.0 3.0 0.00 0.11 0.00 93 1011.7
20141126054333 60 180 1.0 3.0 0.00 0.11 0.00 93 1011.8
20141126053332 60 180 0.0 3.0 0.00 0.11 0.00 93 1011.8
20141126052333 60 180 1.0 3.0 0.00 0.11 0.00 93 1011.9
20141126051333 60 179 1.0 3.0 0.00 0.11 0.00 93 1011.9
20141126050332 59 180 0.0 3.0 0.00 0.11 0.00 93 1011.9
20141126045332 60 180 1.0 2.0 0.00 0.11 0.00 93 1012.0
20141126042332 60 180 0.0 1.0 0.00 0.11 0.00 93 1012.0
20141126041333 60 180 0.0 1.0 0.00 0.11 0.00 93 1012.1
20141126034333 60 180 0.0 0.0 0.00 0.11 0.00 93 1012.3
20141126031332 60 179 0.0 0.0 0.00 0.11 0.00 92 1012.7
20141126030332 60 179 0.0 0.0 0.00 0.11 0.00 92 1012.7
20141126025333 60 180 0.0 0.0 0.00 0.11 0.00 92 1012.8
20141126024333 60 179 0.0 0.0 0.00 0.11 0.00 92 1012.8
20141126022333 60 179 0.0 2.0 0.00 0.11 0.00 92 1013.1
20141126021332 60 180 0.0 0.0 0.00 0.11 0.00 92 1013.1
20141126020332 60 179 0.0 0.0 0.00 0.11 0.00 92 1013.2
20141126015332 60 180 0.0 0.0 0.00 0.11 0.00 92 1013.4
20141126013332 61 180 0.0 1.0 0.00 0.11 0.00 92 1013.5
20141126012333 61 180 0.0 0.0 0.00 0.11 0.00 92 1013.5
20141126011332 61 179 0.0 0.0 0.00 0.11 0.00 91 1013.6
20141126010332 61 180 0.0 0.0 0.00 0.11 0.00 92 1013.6
20141126003332 61 179 0.0 0.0 0.00 0.11 0.00 92 1014.0
20141126001333 61 179 0.0 0.0 0.00 0.11 0.00 91 1014.3
20141126000334 61 180 0.0 0.0 0.00 0.11 0.00 91 1014.5
20141125235332 61 179 0.0 0.0 0.00 0.11 0.11 91 1014.5
20141125234333 61 180 0.0 0.0 0.00 0.11 0.11 91 1014.7
20141125233332 61 180 0.0 0.0 0.00 0.11 0.11 91 1014.8
20141125231332 61 179 0.0 0.0 0.00 0.11 0.11 91 1014.9
20141125230333 61 180 0.0 0.0 0.00 0.11 0.11 91 1015.0
20141125225332 61 180 0.0 1.0 0.00 0.11 0.11 90 1015.2
20141125221332 62 180 0.0 0.0 0.00 0.11 0.11 90 1015.0
20141125220332 62 179 0.0 0.0 0.00 0.11 0.11 90 1015.0
20141125214332 62 179 0.0 0.0 0.00 0.11 0.11 90 1015.1
20141125213332 62 180 0.0 0.0 0.00 0.11 0.11 90 1015.2
20141125211332 62 180 0.0 0.0 0.00 0.11 0.11 90 1015.1
20141125205332 62 180 0.0 0.0 0.00 0.11 0.11 90 1015.3
20141125204332 62 180 0.0 0.0 0.00 0.11 0.11 89 1015.3
20141125203332 62 179 0.0 0.0 0.00 0.11 0.11 90 1015.3
20141125200333 62 180 1.0 3.0 0.00 0.11 0.11 90 1015.4
20141125193332 62 180 0.0 2.0 0.00 0.11 0.11 90 1015.3
20141125192333 62 180 0.0 3.0 0.00 0.11 0.11 91 1015.3
20141125191332 61 179 1.0 3.0 0.00 0.11 0.11 91 1015.4
20141125184332 61 180 0.0 2.0 0.00 0.11 0.11 90 1015.2
20141125182332 61 180 0.0 1.0 0.00 0.11 0.11 90 1015.2
20141125181332 62 180 0.0 1.0 0.00 0.11 0.11 90 1015.2
20141125173331 62 180 0.0 0.0 0.00 0.11 0.11 89 1015.3
20141125172332 62 180 0.0 1.0 0.00 0.11 0.11 89 1015.3
20141125165332 63 180 0.0 1.0 0.00 0.11 0.11 88 1015.4
20141125164332 63 180 0.0 0.0 0.00 0.11 0.11 87 1015.4
20141125163331 64 179 0.0 1.0 0.00 0.11 0.11 87 1015.4
20141125160331 64 180 0.0 3.0 0.00 0.11 0.11 86 1015.4
20141125155331 64 179 0.0 3.0 0.00 0.11 0.11 86 1015.4
20141125153332 64 179 2.0 3.0 0.00 0.11 0.11 85 1015.3
20141125151332 64 180 3.0 7.0 0.00 0.11 0.11 85 1015.3
20141125145332 65 161 3.0 7.0 0.00 0.11 0.11 85 1015.2
20141125144332 65 163 2.0 6.0 0.00 0.11 0.11 86 1015.2
20141125143331 65 160 2.0 6.0 0.00 0.11 0.11 87 1015.2
20141125142334 64 137 3.0 12.0 0.00 0.11 0.11 88 1015.1
20141125141332 64 101 5.0 10.0 0.09 0.11 0.11 89 1015.2
20141125140332 64 59 3.0 7.0 0.11 0.11 0.11 88 1015.3
20141125134331 64 64 2.0 9.0 0.11 0.11 0.11 89 1015.4
20141125132334 65 65 3.0 9.0 0.11 0.11 0.11 87 1015.6
20141125131335 65 113 3.0 10.0 0.02 0.02 0.02 86 1015.7
20141125125333 65 59 5.0 9.0 0.00 0.00 0.00 86 1015.9
20141125123332 65 107 3.0 8.0 0.00 0.00 0.00 86 1016.1
20141125121331 65 38 3.0 5.0 0.00 0.00 0.00 84 1016.4
20141125120332 65 50 2.0 5.0 0.00 0.00 0.00 84 1016.6
20141125115332 65 50 2.0 5.0 0.00 0.00 0.00 84 1016.7
20141125112332 65 49 2.0 5.0 0.00 0.00 0.00 84 1016.9
20141125111331 65 41 2.0 5.0 0.00 0.00 0.00 84 1017.0